• En España
  • Lista de países
  • Para 7 días
  • Temperatura del agua
  • Mapa Satelital
  • El tiempo en el mapa
  • Informadores
  • user-avatar
    Iniciar sesión

    Tiempo cada hora Zagnileckiy Hutor

    Hoy, 20 Julio, Viernes

    Tiempo Temperatura Precipitaciones Viento Presión Humedad
    00:00 +19°C° 0 mm 1 mps 734 mmHg 95%
    01:00 +17°C° 0 mm 0 mps 734 mmHg 95%
    02:00 +17°C° 0 mm 0 mps 734 mmHg 95%
    03:00 +17°C° 0 mm 0 mps 735 mmHg 95%
    04:00 +18°C° 0 mm 0 mps 735 mmHg 96%
    05:00 +20°C° 0 mm 1 mps 735 mmHg 96%
    06:00 +21°C° 0 mm 1 mps 735 mmHg 92%
    07:00 +22°C° 0 mm 1 mps 735 mmHg 89%
    08:00 +23°C° 0 mm 2 mps 735 mmHg 86%
    09:00 +24°C° 0,1 mm 2 mps 735 mmHg 81%
    10:00 +25°C° 0,1 mm 2 mps 735 mmHg 77%
    11:00 +26°C° 0,1 mm 2 mps 735 mmHg 72%
    12:00 +27°C° 0,1 mm 2 mps 735 mmHg 70%
    13:00 +27°C° 0,1 mm 2 mps 735 mmHg 68%
    14:00 +27°C° 0,1 mm 2 mps 735 mmHg 66%
    15:00 +27°C° 0 mm 2 mps 735 mmHg 69%
    16:00 +27°C° 0 mm 2 mps 735 mmHg 71%
    17:00 +27°C° 0 mm 2 mps 736 mmHg 73%
    18:00 +26°C° 0 mm 1 mps 736 mmHg 77%
    19:00 +24°C° 0 mm 1 mps 736 mmHg 81%
    20:00 +22°C° 0 mm 1 mps 736 mmHg 85%
    21:00 +22°C° 0,1 mm 1 mps 736 mmHg 87%
    22:00 +21°C° 0,1 mm 1 mps 736 mmHg 88%
    23:00 +21°C° 0,1 mm 1 mps 736 mmHg 89%

    Mañana, 21 Julio, Sábado

    Tiempo Temperatura Precipitaciones Viento Presión Humedad
    00:00 +21°C° 0 mm 1 mps 736 mmHg 89%
    01:00 +20°C° 0 mm 1 mps 736 mmHg 90%
    02:00 +20°C° 0 mm 1 mps 736 mmHg 90%
    03:00 +18°C° 0 mm 0 mps 736 mmHg 90%
    04:00 +19°C° 0 mm 0 mps 736 mmHg 90%
    05:00 +19°C° 0 mm 0 mps 736 mmHg 90%
    06:00 +20°C° 0,2 mm 0 mps 737 mmHg 86%
    07:00 +22°C° 0,2 mm 0 mps 737 mmHg 81%
    08:00 +23°C° 0,2 mm 0 mps 737 mmHg 77%
    09:00 +26°C° 0,3 mm 1 mps 737 mmHg 73%
    10:00 +27°C° 0,3 mm 1 mps 737 mmHg 68%
    11:00 +28°C° 0,3 mm 1 mps 737 mmHg 64%
    12:00 +28°C° 0,4 mm 1 mps 737 mmHg 63%
    13:00 +28°C° 0,4 mm 1 mps 737 mmHg 62%
    14:00 +28°C° 0,4 mm 1 mps 737 mmHg 61%
    15:00 +28°C° 0,4 mm 1 mps 737 mmHg 63%
    16:00 +28°C° 0,4 mm 1 mps 737 mmHg 65%
    17:00 +28°C° 0,4 mm 1 mps 736 mmHg 67%
    18:00 +26°C° 0,1 mm 1 mps 736 mmHg 73%
    19:00 +25°C° 0,1 mm 1 mps 736 mmHg 78%
    20:00 +23°C° 0,1 mm 1 mps 736 mmHg 84%
    21:00 +22°C° 0 mm 1 mps 736 mmHg 86%
    22:00 +22°C° 0 mm 1 mps 736 mmHg 88%
    23:00 +21°C° 0 mm 1 mps 736 mmHg 89%

    Pasado mañana, 22 Julio, Domingo

    Tiempo Temperatura Precipitaciones Viento Presión Humedad
    00:00 +21°C° 0 mm 1 mps 736 mmHg 90%
    01:00 +21°C° 0 mm 1 mps 736 mmHg 90%
    02:00 +18°C° 0 mm 0 mps 736 mmHg 90%
    03:00 +21°C° 0 mm 1 mps 736 mmHg 90%
    04:00 +21°C° 0 mm 1 mps 736 mmHg 91%
    05:00 +21°C° 0 mm 1 mps 737 mmHg 91%
    06:00 +22°C° 0 mm 1 mps 737 mmHg 86%
    07:00 +24°C° 0 mm 1 mps 737 mmHg 82%
    08:00 +25°C° 0 mm 1 mps 737 mmHg 77%
    09:00 +26°C° 1 mm 1 mps 737 mmHg 73%
    10:00 +27°C° 1 mm 2 mps 737 mmHg 70%
    11:00 +28°C° 1 mm 2 mps 737 mmHg 66%
    12:00 +28°C° 1,1 mm 2 mps 737 mmHg 66%
    13:00 +29°C° 1,1 mm 2 mps 736 mmHg 65%
    14:00 +29°C° 1,1 mm 1 mps 736 mmHg 65%
    15:00 +28°C° 0,9 mm 2 mps 736 mmHg 70%
    16:00 +27°C° 0,9 mm 2 mps 736 mmHg 75%
    17:00 +27°C° 0,9 mm 2 mps 736 mmHg 79%
    18:00 +26°C° 0,8 mm 2 mps 736 mmHg 83%
    19:00 +24°C° 0,8 mm 2 mps 736 mmHg 86%
    20:00 +23°C° 0,8 mm 2 mps 736 mmHg 90%
    21:00 +23°C° 1,1 mm 2 mps 736 mmHg 91%
    22:00 +21°C° 1,1 mm 2 mps 736 mmHg 92%
    23:00 +21°C° 1,1 mm 2 mps 736 mmHg 93%

    23 Julio, Lunes

    Tiempo Temperatura Precipitaciones Viento Presión Humedad
    00:00 +21°C° 0,5 mm 2 mps 736 mmHg 94%
    01:00 +20°C° 0,5 mm 2 mps 736 mmHg 95%
    02:00 +20°C° 0,5 mm 3 mps 736 mmHg 96%
    03:00 +20°C° 0,9 mm 3 mps 736 mmHg 96%
    04:00 +20°C° 0,9 mm 3 mps 736 mmHg 96%
    05:00 +20°C° 0,9 mm 3 mps 736 mmHg 96%
    06:00 +20°C° 0,4 mm 3 mps 736 mmHg 95%
    07:00 +21°C° 0,4 mm 3 mps 737 mmHg 94%
    08:00 +21°C° 0,4 mm 3 mps 737 mmHg 93%
    09:00 +21°C° 0,3 mm 3 mps 737 mmHg 92%
    10:00 +22°C° 0,3 mm 3 mps 737 mmHg 91%
    11:00 +22°C° 0,3 mm 3 mps 737 mmHg 90%
    12:00 +22°C° 0,6 mm 3 mps 737 mmHg 88%
    13:00 +24°C° 0,6 mm 3 mps 737 mmHg 86%
    14:00 +24°C° 0,6 mm 3 mps 737 mmHg 85%
    15:00 +24°C° 0,4 mm 3 mps 737 mmHg 84%
    16:00 +25°C° 0,4 mm 3 mps 737 mmHg 83%
    17:00 +25°C° 0,4 mm 3 mps 737 mmHg 83%
    18:00 +24°C° 0,2 mm 2 mps 737 mmHg 86%
    19:00 +23°C° 0,2 mm 2 mps 737 mmHg 89%
    20:00 +20°C° 0,2 mm 2 mps 737 mmHg 93%
    21:00 +20°C° 0 mm 2 mps 737 mmHg 93%
    22:00 +20°C° 0 mm 2 mps 737 mmHg 93%
    23:00 +19°C° 0 mm 2 mps 738 mmHg 94%

    24 Julio, Martes

    Tiempo Temperatura Precipitaciones Viento Presión Humedad
    00:00 +19°C° 0 mm 2 mps 738 mmHg 94%
    01:00 +19°C° 0 mm 2 mps 738 mmHg 94%
    02:00 +18°C° 0 mm 2 mps 738 mmHg 95%
    03:00 +18°C° 0 mm 2 mps 738 mmHg 95%
    04:00 +19°C° 0 mm 2 mps 738 mmHg 95%
    05:00 +19°C° 0 mm 2 mps 738 mmHg 95%
    06:00 +20°C° 0 mm 3 mps 738 mmHg 91%
    07:00 +22°C° 0 mm 3 mps 739 mmHg 86%
    08:00 +23°C° 0 mm 4 mps 739 mmHg 81%
    09:00 +25°C° 0,3 mm 4 mps 739 mmHg 78%
    10:00 +26°C° 0,3 mm 4 mps 739 mmHg 74%
    11:00 +27°C° 0,3 mm 4 mps 739 mmHg 70%
    12:00 +27°C° 1,1 mm 4 mps 739 mmHg 70%
    13:00 +28°C° 1,1 mm 5 mps 739 mmHg 70%
    14:00 +28°C° 1,1 mm 5 mps 739 mmHg 70%
    15:00 +28°C° 0,7 mm 4 mps 739 mmHg 73%
    16:00 +27°C° 0,7 mm 3 mps 739 mmHg 76%
    17:00 +27°C° 0,7 mm 3 mps 739 mmHg 78%
    18:00 +26°C° 0,1 mm 3 mps 740 mmHg 81%
    19:00 +24°C° 0,1 mm 2 mps 740 mmHg 84%
    20:00 +23°C° 0,1 mm 2 mps 740 mmHg 87%
    21:00 +21°C° 0 mm 2 mps 740 mmHg 88%
    22:00 +21°C° 0 mm 2 mps 740 mmHg 89%
    23:00 +21°C° 0 mm 2 mps 740 mmHg 89%

    25 Julio, Miércoles

    Tiempo Temperatura Precipitaciones Viento Presión Humedad
    00:00 +20°C° 0 mm 2 mps 740 mmHg 90%
    01:00 +20°C° 0 mm 2 mps 741 mmHg 91%
    02:00 +19°C° 0 mm 2 mps 741 mmHg 92%
    03:00 +20°C° 0 mm 2 mps 741 mmHg 92%
    04:00 +20°C° 0 mm 2 mps 741 mmHg 92%
    05:00 +20°C° 0 mm 2 mps 741 mmHg 92%
    06:00 +21°C° 0,4 mm 3 mps 742 mmHg 87%
    07:00 +24°C° 0,4 mm 3 mps 742 mmHg 83%
    08:00 +26°C° 0,4 mm 3 mps 742 mmHg 78%
    09:00 +27°C° 0,6 mm 3 mps 742 mmHg 73%
    10:00 +27°C° 0,6 mm 4 mps 742 mmHg 69%
    11:00 +28°C° 0,6 mm 4 mps 742 mmHg 64%
    12:00 +28°C° 0,7 mm 4 mps 742 mmHg 65%
    13:00 +28°C° 0,7 mm 4 mps 742 mmHg 67%
    14:00 +28°C° 0,7 mm 4 mps 742 mmHg 68%
    15:00 +27°C° 0,5 mm 5 mps 742 mmHg 72%
    16:00 +26°C° 0,5 mm 5 mps 742 mmHg 76%
    17:00 +26°C° 0,5 mm 5 mps 742 mmHg 81%
    18:00 +23°C° 0,2 mm 5 mps 742 mmHg 83%
    19:00 +22°C° 0,2 mm 5 mps 743 mmHg 85%
    20:00 +20°C° 0,2 mm 5 mps 743 mmHg 88%
    21:00 +19°C° 0 mm 4 mps 743 mmHg 88%
    22:00 +19°C° 0 mm 4 mps 743 mmHg 89%
    23:00 +18°C° 0 mm 4 mps 743 mmHg 89%
    Mostrar más